GFSFLT2_850_dewp_078.txt.gz
Dewpoint
5 5 5 4 5 5 5 4 4 4 4 3 1 -1 -1 -1 1 2 1 2 3 3 5 6 0 1 3
5 5 5 5 5 4 4 4 3 3 3 3 0 -1 -1 -2 0 1 0 1 2 4 4 5 7 8 7
4 4 4 4 4 4 4 3 3 2 2 1 -0 -1 -2 -2 -3 -1 0 0 1 2 4 5 4 6 6
3 3 3 3 3 3 2 2 2 1 1 0 -1 -1 -2 -3 -5 -5 -4 -2 -0 1 2 3 4 5 5
2 2 2 2 2 2 2 1 1 0 -0 -1 -1 -2 -4 -10 -18 -20 -16 -7 -3 -1 0 1 2 2 3
1 1 1 1 1 1 1 0 -0 -0 -1 -1 -3 -6 -15 -21 -23 -24 -24 -24 -16 -6 -2 -0 0 0 0
1 0 0 0 0 0 -0 -1 -1 -3 -10 -6 -12 -19 -22 -23 -25 -26 -26 -28 -28 -26 -23 -11 -6 -3 -2
-0 -0 -0 -0 -1 -1 -2 -2 -5 -7 -10 -18 -22 -23 -23 -23 -23 -23 -21 -20 -21 -22 -26 -29 -30 -29 -29
-5 -4 -2 -2 -2 -3 -4 -6 -7 -12 -18 -22 -23 -23 -22 -21 -20 -19 -18 -17 -17 -17 -17 -17 -17 -17 -17
-21 -24 -22 -16 -10 -8 -9 -11 -14 -21 -24 -23 -23 -23 -21 -20 -18 -17 -16 -16 -15 -14 -14 -14 -14 -14 -14
-21 -22 -21 -20 -17 -18 -18 -19 -21 -25 -28 -24 -22 -21 -16 -16 -17 -16 -15 -14 -14 -14 -14 -15 -15 -15 -15
-21 -21 -21 -22 -24 -24 -26 -26 -26 -28 -26 -21 -19 -18 -16 -16 -16 -16 -15 -14 -14 -14 -15 -16 -16 -15 -15
-21 -20 -20 -21 -23 -24 -25 -26 -25 -25 -25 -22 -17 -16 -16 -16 -16 -16 -16 -16 -16 -16 -16 -16 -16 -16 -17
-21 -20 -20 -22 -23 -25 -24 -23 -21 -21 -20 -19 -17 -16 -16 -16 -16 -16 -16 -16 -17 -17 -17 -17 -17 -17 -17
-22 -22 -22 -23 -24 -24 -22 -20 -20 -21 -21 -20 -19 -18 -17 -16 -16 -17 -17 -18 -18 -19 -18 -18 -18 -17 -16
-20 -20 -22 -23 -23 -22 -21 -20 -21 -21 -21 -21 -22 -21 -20 -20 -21 -21 -22 -21 -21 -20 -19 -18 -17 -15 -13
-19 -20 -19 -20 -21 -18 -16 -19 -21 -20 -20 -21 -22 -22 -22 -22 -22 -22 -21 -20 -20 -19 -16 -13 -12 -12 -11

GFSFLT2_850_dewp_081.txt.gz
Dewpoint
5 6 4 4 4 4 5 5 5 5 4 4 4 3 2 -1 -1 1 1 1 3 3 3 5 5 -1 -0
4 4 4 4 5 5 5 4 4 4 4 4 3 2 1 -1 -1 -1 1 1 2 3 3 4 6 3 -3
4 4 3 3 4 4 4 4 4 3 3 3 2 1 -1 -1 -2 -2 -1 0 0 2 4 4 6 6 7
3 3 3 3 3 3 3 3 3 2 2 2 1 0 -1 -1 -2 -3 -4 -4 -0 1 2 4 5 5 6
2 2 2 2 2 2 2 2 2 1 1 1 0 -1 -1 -2 -4 -8 -13 -10 -5 -1 1 2 3 4 4
2 2 1 1 1 1 1 1 1 1 0 -0 -1 -1 -2 -4 -14 -21 -23 -24 -21 -7 -3 -0 1 1 2
1 1 1 1 1 1 1 0 -0 -0 -1 -3 -3 -3 -7 -18 -22 -24 -26 -27 -26 -24 -14 -5 -2 -0 0
1 1 0 0 0 -0 -0 -1 -1 -2 -3 -9 -15 -20 -22 -22 -23 -25 -25 -23 -24 -27 -28 -27 -22 -13 -8
0 -0 -1 -1 -1 -1 -2 -2 -2 -4 -7 -9 -17 -22 -22 -22 -21 -23 -21 -19 -18 -19 -20 -23 -27 -28 -28
-3 -12 -16 -7 -3 -3 -3 -3 -3 -7 -13 -16 -21 -22 -22 -21 -20 -18 -18 -18 -17 -16 -16 -15 -15 -15 -16
-15 -21 -22 -19 -13 -9 -8 -7 -10 -13 -25 -23 -24 -22 -21 -15 -19 -18 -15 -15 -16 -15 -15 -15 -15 -15 -15
-19 -21 -21 -21 -20 -18 -17 -17 -19 -22 -25 -25 -22 -21 -20 -18 -16 -16 -15 -15 -15 -15 -15 -16 -16 -16 -16
-20 -20 -21 -21 -22 -22 -24 -25 -26 -26 -27 -27 -22 -19 -18 -16 -16 -16 -16 -16 -15 -15 -15 -16 -17 -16 -16
-21 -19 -20 -20 -20 -21 -23 -25 -24 -25 -23 -22 -21 -19 -17 -17 -16 -16 -16 -16 -17 -17 -17 -17 -17 -17 -17
-20 -19 -20 -20 -21 -22 -24 -24 -21 -18 -20 -20 -19 -18 -18 -17 -17 -16 -16 -16 -17 -17 -18 -18 -18 -18 -18
-20 -20 -20 -21 -22 -22 -24 -22 -19 -19 -20 -20 -20 -20 -20 -19 -19 -19 -19 -19 -20 -21 -21 -20 -19 -18 -17
-19 -19 -20 -21 -22 -22 -23 -20 -19 -19 -20 -20 -20 -20 -21 -21 -20 -22 -22 -22 -21 -20 -19 -19 -17 -14 -12

GFSFLT2_850_dewp_084.txt.gz
Dewpoint
4 4 6 4 5 3 4 4 4 5 5 5 4 4 3 2 2 -1 -1 1 0 2 2 2 1 4 0
4 4 4 4 2 3 4 4 4 4 4 4 4 4 2 2 0 -1 -1 -0 -0 2 3 3 4 6 4
4 4 3 3 3 3 2 4 4 4 4 4 3 3 2 1 -1 -2 -2 -2 0 1 3 4 6 6 3
4 2 2 3 3 2 2 2 3 3 3 2 2 2 1 1 -1 -2 -2 -3 -3 -0 2 3 4 6 6
2 2 2 2 1 1 2 2 2 2 2 2 1 1 1 -1 -1 -2 -4 -8 -8 -3 1 2 4 5 5
1 1 2 2 2 1 1 1 1 1 1 1 0 -0 -1 -1 -3 -7 -17 -22 -23 -11 -3 0 1 3 4
1 1 1 1 1 1 1 1 1 1 0 -0 -1 -3 -2 -4 -12 -21 -25 -26 -26 -25 -13 -4 -1 1 1
0 1 0 1 1 1 0 0 -0 -1 -1 -1 -3 -10 -13 -17 -20 -23 -25 -25 -25 -28 -26 -21 -9 -3 -1
0 0 0 0 0 0 -0 -0 -1 -2 -2 -2 -8 -12 -18 -21 -22 -24 -24 -21 -19 -21 -23 -29 -28 -26 -17
-1 -1 -1 -1 -1 -1 -1 -2 -2 -3 -4 -7 -9 -19 -21 -23 -21 -19 -21 -19 -17 -17 -17 -18 -20 -23 -23
-1 -1 -7 -16 -14 -7 -6 -4 -3 -4 -15 -15 -18 -22 -23 -18 -21 -19 -18 -17 -17 -15 -15 -15 -15 -15 -16
-3 -10 -18 -21 -20 -18 -11 -6 -9 -8 -11 -23 -25 -25 -24 -22 -17 -18 -17 -16 -16 -15 -14 -14 -15 -15 -16
-11 -18 -20 -21 -21 -18 -14 -15 -17 -17 -20 -24 -25 -24 -22 -20 -20 -18 -17 -16 -15 -15 -15 -14 -15 -16 -17
-16 -17 -18 -20 -20 -21 -23 -23 -24 -26 -27 -28 -26 -22 -19 -18 -18 -17 -17 -17 -17 -17 -16 -16 -17 -17 -17
-16 -17 -18 -19 -19 -19 -21 -23 -25 -26 -25 -22 -22 -21 -20 -18 -18 -17 -17 -17 -17 -17 -17 -17 -18 -18 -18
-16 -18 -20 -19 -19 -19 -21 -24 -24 -23 -18 -19 -21 -20 -19 -18 -19 -18 -18 -18 -18 -18 -19 -20 -20 -20 -19
-16 -17 -19 -19 -18 -19 -21 -23 -24 -20 -19 -20 -20 -20 -20 -20 -20 -19 -19 -20 -21 -21 -21 -20 -19 -18 -16

GFSFLT2_850_dewp_087.txt.gz
Dewpoint
4 5 5 5 5 5 3 4 4 4 4 4 5 4 4 4 2 2 1 -1 -1 -1 -1 1 -1 -1 1
2 4 5 3 4 4 4 3 3 3 4 4 4 4 4 3 2 1 0 -1 -2 -1 1 2 5 1 3
1 2 4 3 3 2 3 3 2 2 3 3 3 3 3 3 1 1 -0 -2 -2 -2 1 3 4 6 3
2 3 3 3 2 2 2 2 2 3 3 3 3 3 2 1 1 1 -1 -2 -2 -4 -0 3 3 5 5
2 3 2 2 2 2 1 2 2 1 2 2 2 2 1 1 1 -0 -2 -3 -5 -6 -2 1 3 5 6
0 1 1 1 2 1 1 1 1 1 1 1 1 1 0 0 -0 -2 -3 -8 -14 -14 -6 -0 2 4 5
-1 -1 0 1 1 1 1 1 1 1 1 1 1 -0 -0 -2 -2 -5 -14 -22 -24 -24 -17 -4 0 1 3
-1 -1 1 0 0 1 0 0 0 0 0 -0 -1 -1 -3 -6 -6 -15 -23 -25 -26 -26 -25 -16 -5 -1 1
-1 0 0 0 0 0 0 1 0 -0 -1 -1 -2 -3 -9 -18 -21 -23 -24 -23 -23 -24 -27 -26 -22 -11 -4
0 -0 0 -0 -0 -0 -0 -0 -1 -1 -2 -2 -3 -7 -13 -18 -22 -22 -22 -21 -19 -19 -21 -24 -26 -26 -25
-0 -0 -1 -1 -1 -1 -1 -1 -2 -2 -4 -5 -7 -8 -17 -22 -22 -20 -19 -19 -18 -16 -17 -16 -16 -16 -17
-1 -1 -1 -1 -5 -13 -7 -7 -7 -7 -5 -7 -17 -17 -19 -24 -18 -21 -18 -17 -17 -16 -15 -15 -15 -14 -15
-1 -3 -4 -9 -18 -19 -16 -12 -10 -8 -7 -9 -15 -23 -22 -22 -22 -19 -18 -17 -16 -16 -15 -15 -15 -15 -16
-1 -4 -9 -17 -20 -20 -20 -18 -13 -14 -14 -18 -21 -24 -22 -21 -21 -19 -18 -17 -17 -16 -15 -15 -15 -15 -16
-2 -3 -10 -17 -19 -20 -21 -21 -20 -22 -24 -24 -26 -25 -23 -21 -18 -18 -17 -17 -17 -17 -16 -16 -16 -17 -17
-2 -4 -12 -17 -18 -19 -20 -21 -22 -24 -26 -26 -26 -23 -21 -19 -19 -19 -18 -18 -17 -16 -17 -17 -17 -18 -19
-3 -7 -13 -15 -16 -17 -18 -19 -21 -23 -24 -23 -19 -20 -20 -19 -18 -16 -19 -19 -18 -18 -18 -20 -21 -20 -20

GFSFLT2_850_dewp_090.txt.gz
Dewpoint
3 3 3 4 5 5 5 5 4 2 3 3 3 3 4 5 4 4 2 1 1 -0 -1 -1 -0 -2 -4
3 4 4 5 5 5 4 3 3 3 3 3 3 4 4 4 4 3 1 1 1 -1 -1 -1 1 3 1
3 3 4 4 4 3 3 3 2 3 3 2 2 3 3 3 3 3 1 1 0 -2 -2 -1 1 4 5
3 3 2 2 2 3 3 2 2 2 2 2 2 2 3 3 2 2 1 1 -1 -2 -3 -2 2 4 5
2 2 1 1 2 2 2 1 1 2 2 2 2 2 2 2 2 1 1 0 -2 -3 -5 -3 1 4 5
1 1 -0 -0 1 1 1 1 1 1 1 1 1 2 1 1 0 0 -0 -2 -3 -5 -9 -4 1 3 4
0 0 0 -1 -1 1 1 1 1 1 1 1 1 1 1 0 -0 -2 -2 -4 -10 -20 -22 -10 -0 1 3
1 -0 0 -1 -0 0 1 1 1 1 1 1 1 0 -0 -0 -2 -4 -4 -14 -24 -26 -25 -22 -5 -1 1
0 -0 -1 -1 -0 0 1 0 0 0 1 0 -0 -1 -1 -2 -11 -15 -22 -24 -24 -25 -27 -25 -17 -6 -2
-0 -0 -1 -0 0 -0 0 1 0 0 0 -0 -1 -1 -3 -8 -13 -20 -22 -24 -22 -22 -23 -26 -25 -22 -12
0 -0 0 0 -0 0 0 -0 -0 -0 -1 -1 -1 -2 -6 -23 -18 -21 -21 -21 -21 -19 -18 -18 -20 -22 -24
-0 -1 -0 -0 -0 -1 -1 -1 -1 -1 -1 -2 -8 -5 -6 -11 -21 -22 -21 -20 -20 -16 -16 -15 -15 -15 -17
-0 -1 -1 -1 -1 -1 -1 -2 -3 -3 -3 -6 -6 -18 -17 -13 -23 -18 -23 -21 -18 -17 -16 -15 -15 -15 -15
-0 -1 -1 -2 -2 -5 -11 -11 -7 -7 -8 -7 -6 -9 -22 -22 -23 -23 -20 -18 -18 -17 -16 -16 -15 -15 -15
-1 -1 -2 -2 -3 -10 -16 -13 -11 -10 -10 -9 -8 -12 -23 -21 -22 -21 -20 -18 -18 -17 -16 -15 -15 -15 -15
-1 -1 -2 -2 -3 -12 -16 -15 -15 -15 -13 -14 -15 -19 -24 -21 -21 -19 -18 -17 -17 -17 -17 -17 -17 -17 -17
-2 -2 -2 -3 -3 -10 -16 -17 -17 -17 -19 -21 -21 -23 -25 -21 -19 -20 -19 -19 -18 -17 -17 -17 -17 -17 -18

GFSFLT2_850_dewp_093.txt.gz
Dewpoint
8 8 7 7 7 7 6 5 6 5 4 4 2 3 3 3 3 3 4 4 3 1 1 0 -1 -3 -2
8 6 5 4 5 5 5 6 5 4 3 3 3 3 3 3 3 4 4 3 2 1 0 -0 -2 -2 -0
7 5 3 3 3 4 5 4 4 3 3 2 3 2 2 3 3 4 3 3 2 1 0 -1 -3 -2 3
5 4 3 2 3 4 3 2 2 2 2 2 2 1 1 2 2 3 3 2 1 0 0 -2 -3 -1 3
4 3 3 2 2 1 1 2 2 2 1 1 2 1 1 1 1 2 2 1 0 0 -1 -2 -5 1 4
3 3 2 2 2 1 1 1 1 -0 1 1 1 1 1 1 1 2 1 0 0 -1 -2 -4 -7 1 4
3 2 2 1 2 1 0 -0 0 0 0 1 1 1 1 1 1 1 -0 -1 -1 -3 -9 -14 -10 -0 4
3 3 3 3 3 1 -1 -0 1 1 1 0 1 1 1 1 1 -0 -0 -3 -3 -13 -23 -24 -16 -1 2
4 4 4 2 2 0 -0 1 1 1 1 0 0 0 1 0 -0 -0 -3 -6 -11 -23 -25 -25 -24 -7 -0
2 2 2 1 1 -0 -0 1 0 -0 0 -0 0 0 -1 -1 -1 -1 -12 -20 -23 -23 -23 -26 -25 -18 -5
1 1 1 1 0 0 0 -0 -0 -0 0 0 -0 -0 -1 -5 -9 -6 -15 -20 -22 -21 -20 -22 -26 -25 -21
1 1 1 0 0 0 -0 -0 -0 -0 -0 -0 -1 -1 -2 -2 -13 -16 -16 -19 -19 -18 -18 -17 -20 -24 -26
1 1 1 0 -0 -1 -1 -1 -1 -1 -1 -1 -2 -2 -6 -3 -4 -13 -19 -20 -18 -16 -16 -16 -15 -18 -19
0 0 0 -1 -1 -1 -1 -1 -2 -2 -2 -2 -3 -3 -7 -14 -11 -16 -18 -18 -18 -16 -15 -15 -15 -15 -15
-1 -1 -1 -1 -1 -1 -2 -2 -2 -2 -3 -4 -4 -6 -4 -13 -20 -19 -20 -18 -17 -17 -15 -15 -15 -15 -15
-1 -1 -1 -1 -1 -2 -2 -3 -8 -12 -9 -6 -8 -7 -5 -9 -21 -21 -20 -17 -16 -17 -15 -15 -15 -15 -15
-2 -2 -2 -2 -2 -2 -2 -4 -12 -13 -10 -7 -9 -8 -7 -9 -22 -20 -19 -18 -17 -17 -17 -17 -17 -16 -16

GFSFLT2_850_dewp_096.txt.gz
Dewpoint
9 9 9 8 8 8 6 6 7 6 5 4 4 4 4 2 2 3 3 3 4 4 3 1 1 0 -1
9 8 8 8 8 7 7 7 7 6 5 5 4 3 3 1 3 3 3 3 4 3 2 1 0 -0 -2
9 8 8 8 7 7 7 6 6 6 5 4 4 3 2 2 3 3 3 3 3 2 2 0 -0 -1 -3
8 8 8 7 6 5 5 6 5 5 4 3 2 2 2 2 1 2 3 3 2 2 1 0 -0 -2 -3
7 7 7 6 5 5 5 5 5 4 3 2 2 1 2 2 1 1 2 1 1 1 0 -0 -1 -4 0
7 7 4 3 4 4 3 3 3 2 2 1 1 1 1 1 1 1 1 1 1 -0 -0 -1 -3 -7 2
7 6 4 3 3 4 3 2 1 1 0 -0 1 1 1 1 1 1 1 1 -0 -0 -1 -2 -6 -9 2
6 5 5 4 4 3 3 2 2 1 1 0 1 1 1 0 0 0 1 0 -0 -1 -3 -10 -16 -11 1
4 4 4 3 3 3 3 3 2 1 1 1 0 0 0 0 0 0 0 -0 -1 -4 -7 -20 -24 -15 -1
3 4 4 4 3 4 3 3 2 1 0 1 0 0 -0 0 0 -0 -1 -1 -5 -11 -20 -26 -27 -22 -4
2 2 3 3 3 3 2 1 0 0 0 0 -0 -0 -0 -2 -3 -2 -1 -1 -15 -21 -25 -25 -27 -25 -12
1 1 2 2 2 2 1 1 0 0 -0 -0 0 -1 -1 -1 -1 -2 -9 -5 -17 -21 -22 -22 -27 -26 -22
1 1 1 1 1 1 1 0 0 -0 -1 -0 -0 -1 -2 -2 -2 -2 -17 -12 -17 -21 -18 -19 -20 -23 -24
0 0 0 1 0 -0 -0 0 -0 -1 -1 -1 -1 -1 -2 -3 -5 -3 -4 -17 -19 -20 -16 -16 -17 -18 -18
-1 -1 -0 -0 -0 -1 -1 -1 -1 -1 -1 -1 -2 -2 -3 -3 -6 -10 -9 -18 -18 -19 -17 -16 -16 -15 -15
-1 -1 -1 -1 -1 -1 -1 -1 -1 -1 -2 -2 -3 -3 -4 -4 -4 -18 -15 -19 -19 -17 -17 -15 -16 -15 -15
-3 -2 -2 -1 -1 -1 -1 -2 -2 -2 -3 -3 -3 -4 -4 -5 -6 -7 -21 -22 -19 -16 -17 -16 -16 -15 -14

GFSFLT2_850_dewp_099.txt.gz
Dewpoint
9 9 8 8 8 8 9 8 8 7 6 5 5 5 4 4 4 3 2 3 3 3 3 3 2 1 0
8 8 8 8 8 8 8 8 8 6 6 6 6 5 5 4 4 2 1 3 3 3 3 3 1 1 0
8 8 8 8 8 8 8 8 7 7 7 7 6 5 4 4 3 2 3 2 2 3 3 2 1 0 -0
8 8 8 8 8 8 7 7 7 7 7 6 5 5 4 3 2 2 2 2 3 3 2 2 1 -0 -0
7 8 8 8 8 7 7 7 7 6 6 5 5 4 3 2 2 2 1 2 2 2 1 1 -0 -0 -2
6 6 6 7 7 7 7 6 6 6 5 5 4 3 2 1 1 1 1 1 1 1 1 -0 -0 -2 -5
5 6 6 7 7 7 6 6 4 4 5 4 3 2 1 0 1 0 0 0 0 1 -0 -0 -2 -3 -5
4 5 6 6 7 6 5 4 5 5 4 1 1 0 -0 0 1 0 0 0 1 1 -0 -1 -4 -9 -3
4 4 5 5 6 5 5 5 4 4 3 2 1 0 0 0 0 0 0 0 1 -0 -0 -3 -10 -17 -3
2 3 4 4 5 4 4 4 4 3 2 2 1 1 0 -0 -0 -0 -0 0 0 -1 -1 -6 -18 -23 -6
1 2 2 3 3 4 4 3 3 3 3 3 2 0 0 -1 -0 -0 -0 -1 -1 -1 -9 -17 -25 -25 -12
0 1 1 2 2 3 3 3 3 3 3 2 1 -0 -0 -0 -2 -2 -1 -1 -1 -2 -19 -23 -25 -25 -20
-1 0 1 1 1 1 2 2 2 2 1 1 -0 -0 -1 -0 -1 -2 -2 -4 -4 -6 -19 -21 -23 -25 -23
-2 -1 0 0 0 0 -0 1 1 1 0 0 -0 -0 -1 -1 -1 -2 -2 -8 -9 -12 -18 -19 -20 -21 -22
-2 -1 -1 -0 -0 -0 -0 -0 0 0 -0 -0 -1 -1 -1 -2 -2 -2 -4 -4 -12 -15 -18 -17 -17 -18 -19
-4 -3 -2 -1 -1 -1 -1 -1 -1 -0 -1 -1 -1 -1 -2 -2 -2 -3 -7 -6 -12 -18 -18 -16 -16 -15 -16
-5 -4 -3 -2 -2 -1 -2 -2 -1 -1 -1 -1 -1 -2 -2 -3 -3 -3 -9 -13 -16 -17 -17 -18 -17 -16 -15

GFSFLT2_850_dewp_105.txt.gz
Dewpoint
8 8 8 8 8 8 8 8 9 9 9 9 8 9 10 10 9 8 8 7 7 5 4 3 3 2 2
8 9 8 8 9 7 8 8 8 8 7 8 8 9 9 9 8 7 7 7 6 5 4 3 2 3 2
7 7 7 7 8 8 8 8 8 7 8 8 8 9 9 9 7 6 6 6 4 4 3 2 2 3 3
6 6 7 7 7 7 7 7 8 8 8 8 7 8 8 7 7 5 5 5 4 4 3 1 2 1 2
2 3 4 5 5 6 6 7 7 8 7 7 7 7 7 7 6 6 5 5 4 4 3 1 2 1 2
2 2 3 4 5 4 5 5 6 7 7 7 7 7 7 6 6 6 5 5 4 4 1 2 0 2 2
-1 0 2 2 3 4 4 4 5 5 6 6 7 7 7 7 7 6 6 5 4 2 -1 0 0 1 0
-7 -3 -0 -0 1 2 3 3 4 4 5 5 5 5 7 6 6 6 5 5 4 2 -1 0 0 0 0
-5 -4 -8 -8 -1 1 2 2 3 4 4 4 4 4 4 5 5 5 5 4 3 1 0 0 -1 0 -0
-17 -17 -18 -16 -14 -4 1 1 2 3 3 3 3 3 2 4 3 3 4 4 2 0 -0 0 0 0 -1
-15 -22 -23 -20 -20 -17 -2 1 1 2 2 3 3 3 3 2 3 2 3 3 1 0 0 -0 0 -0 -1
-9 -7 -6 -8 -7 -3 -5 -1 0 0 1 2 2 2 2 2 2 2 2 2 0 0 0 -0 0 -1 -2
-7 -7 -7 -5 -6 -7 -3 -3 -2 0 -0 1 1 1 1 1 3 3 2 1 0 0 0 0 0 -1 -4
-8 -8 -7 -7 -6 -5 -4 -3 -2 -2 -1 -0 1 -0 -0 -0 2 3 2 2 0 -0 -0 -0 -0 -1 -8
-8 -8 -7 -8 -7 -5 -4 -4 -3 -2 -2 -1 -1 -1 -1 -1 1 0 1 0 0 -0 -1 -1 -2 -4 -19
-9 -9 -9 -8 -7 -6 -5 -5 -4 -3 -2 -2 -2 -3 -2 -1 -1 -0 -0 -0 -0 -1 -1 -1 -2 -7 -19
-9 -9 -9 -9 -7 -6 -5 -5 -5 -4 -3 -3 -2 -2 -2 -2 -2 -1 -0 -1 -2 -3 -3 -3 -3 -11 -18